Tracking 17145 objects as of 23-May-2015
HD Live streaming from Space Station

SL-16 DEB

Track SL-16 DEB now!
10-day predictions
SL-16 DEB is classified as:


NORAD ID: 22453
Int'l Code: 1992-093ES
Perigee: 827.2 km
Apogee: 1,081.1 km
Inclination: 70.8 °
Period: 104.0 minutes
Semi major axis: 7325 km
RCS: 0.0192 m2 (small)
Launch date: December 25, 1992
Source: Commonwealth of Independent States (former USSR) (CIS)

Note: This is SATELLITE DEBRIS
Your satellite tracking list
Your tracking list is empty





NASA's NSSDC Master Catalog

Two Line Element Set (TLE):
1 22453U 92093ES  15142.76822885  .00000580  00000-0  49323-3 0  9995
2 22453 070.8060 033.2532 0173311 058.6777 357.9661 13.84772274127072

Source of the keplerian elements: AFSPC

N2YO: 392